| time (UTC) | temp F | wind direction | speed MPH | gust MPH | rain 1hr in | rain 24hr in | rain mn in | humidity % | barometer mb |
| 20260509093029 | 42 | 212 | 2.0 | 5.0 | 0.00 | 0.00 | 0.00 | 83 | 1022.7 |
| 20260509091604 | 44 | 354 | 0.0 | 3.0 | 0.00 | 0.00 | 0.00 | 82 | 1022.8 |
| 20260509090030 | 45 | 49 | 0.0 | 6.0 | 0.00 | 0.00 | 0.00 | 81 | 1023.0 |
| 20260509084531 | 46 | 148 | 3.0 | 10.0 | 0.00 | 0.00 | 0.00 | 81 | 1023.2 |
| 20260509083033 | 45 | 153 | 4.0 | 9.0 | 0.00 | 0.00 | 0.00 | 81 | 1023.4 |
| 20260509081531 | 46 | 164 | 4.0 | 5.0 | 0.00 | 0.00 | 0.00 | 80 | 1023.6 |
| 20260509080028 | 47 | 159 | 3.0 | 7.0 | 0.00 | 0.00 | 0.00 | 80 | 1023.8 |
| 20260509073031 | 46 | 156 | 5.0 | 10.0 | 0.00 | 0.00 | 0.00 | 82 | 1023.9 |
| 20260509063030 | 51 | 208 | 2.0 | 4.0 | 0.00 | 0.00 | 0.00 | 72 | 1024.2 |
| 20260509061530 | 53 | 250 | 1.0 | 4.0 | 0.00 | 0.00 | 0.00 | 71 | 1024.2 |
| 20260509060032 | 53 | 316 | 2.0 | 6.0 | 0.00 | 0.00 | 0.00 | 71 | 1024.1 |
| 20260509054532 | 53 | 137 | 2.0 | 5.0 | 0.00 | 0.00 | 0.00 | 71 | 1024.2 |
| 20260509053031 | 53 | 272 | 1.0 | 4.0 | 0.00 | 0.00 | 0.00 | 71 | 1024.1 |
| 20260509051529 | 51 | 260 | 1.0 | 7.0 | 0.00 | 0.00 | 0.00 | 72 | 1024.0 |
| 20260509050031 | 51 | 275 | 1.0 | 5.0 | 0.00 | 0.00 | 0.00 | 71 | 1023.9 |
| 20260509043031 | 52 | 248 | 2.0 | 8.0 | 0.00 | 0.00 | 0.00 | 69 | 1023.8 |
| 20260509041530 | 52 | 231 | 2.0 | 7.0 | 0.00 | 0.00 | 0.00 | 67 | 1023.5 |
| 20260509034605 | 54 | 246 | 2.0 | 8.0 | 0.00 | 0.00 | 0.00 | 63 | 1023.2 |
| 20260509031531 | 56 | 257 | 3.0 | 11.0 | 0.00 | 0.00 | 0.00 | 59 | 1022.7 |
| 20260509030146 | 57 | 255 | 3.0 | 10.0 | 0.00 | 0.00 | 0.00 | 57 | 1022.6 |
| 20260509024530 | 59 | 250 | 3.0 | 7.0 | 0.00 | 0.00 | 0.00 | 54 | 1022.5 |
| 20260509023032 | 60 | 263 | 4.0 | 9.0 | 0.00 | 0.00 | 0.00 | 51 | 1022.4 |
| 20260509021529 | 62 | 259 | 4.0 | 15.0 | 0.00 | 0.00 | 0.00 | 49 | 1022.3 |
| 20260509020030 | 62 | 250 | 5.0 | 14.0 | 0.00 | 0.00 | 0.00 | 47 | 1022.2 |
| 20260509013104 | 64 | 261 | 6.0 | 15.0 | 0.00 | 0.00 | 0.00 | 44 | 1022.1 |
| 20260509011531 | 65 | 261 | 6.0 | 18.0 | 0.00 | 0.00 | 0.00 | 42 | 1022.1 |
| 20260509010030 | 66 | 265 | 8.0 | 15.0 | 0.00 | 0.00 | 0.00 | 40 | 1022.0 |
| 20260509004530 | 67 | 274 | 8.0 | 18.0 | 0.00 | 0.00 | 0.00 | 39 | 1021.9 |
| 20260509003030 | 68 | 276 | 5.0 | 14.0 | 0.00 | 0.00 | 0.00 | 37 | 1021.9 |
| 20260509001530 | 69 | 258 | 7.0 | 21.0 | 0.00 | 0.00 | 0.00 | 35 | 1021.6 |
| 20260509000058 | 69 | 251 | 4.0 | 12.0 | 0.00 | 0.00 | 0.00 | 34 | 1021.5 |
| 20260508233030 | 69 | 246 | 6.0 | 24.0 | 0.00 | 0.00 | 0.00 | 34 | 1021.2 |
| 20260508231528 | 69 | 267 | 7.0 | 23.0 | 0.00 | 0.00 | 0.00 | 33 | 1021.2 |
| 20260508230029 | 69 | 276 | 6.0 | 17.0 | 0.00 | 0.00 | 0.00 | 32 | 1021.1 |
| 20260508224605 | 69 | 260 | 9.0 | 18.0 | 0.00 | 0.00 | 0.00 | 30 | 1021.1 |
| 20260508223030 | 69 | 264 | 8.0 | 19.0 | 0.00 | 0.00 | 0.00 | 30 | 1021.0 |
| 20260508221531 | 69 | 264 | 8.0 | 20.0 | 0.00 | 0.00 | 0.00 | 30 | 1021.0 |
| 20260508220028 | 69 | 258 | 5.0 | 17.0 | 0.00 | 0.00 | 0.00 | 31 | 1021.0 |
| 20260508214617 | 67 | 256 | 6.0 | 18.0 | 0.00 | 0.00 | 0.00 | 30 | 1021.1 |
| 20260508213103 | 66 | 243 | 8.0 | 19.0 | 0.00 | 0.00 | 0.00 | 31 | 1021.1 |
| 20260508210029 | 66 | 240 | 6.0 | 16.0 | 0.00 | 0.00 | 0.00 | 33 | 1020.9 |
| 20260508204530 | 66 | 264 | 7.0 | 16.0 | 0.00 | 0.00 | 0.00 | 34 | 1020.9 |
| 20260508201605 | 66 | 263 | 6.0 | 15.0 | 0.00 | 0.00 | 0.00 | 33 | 1020.9 |
| 20260508191529 | 65 | 273 | 8.0 | 21.0 | 0.00 | 0.00 | 0.00 | 37 | 1020.7 |
| 20260508190104 | 64 | 286 | 9.0 | 20.0 | 0.00 | 0.00 | 0.00 | 36 | 1020.6 |
| 20260508184529 | 64 | 284 | 9.0 | 20.0 | 0.00 | 0.00 | 0.00 | 37 | 1020.6 |
| 20260508183030 | 63 | 286 | 6.0 | 18.0 | 0.00 | 0.00 | 0.00 | 49 | 1020.6 |
| 20260508181606 | 59 | 69 | 1.0 | 4.0 | 0.00 | 0.00 | 0.00 | 63 | 1020.5 |
| 20260508180030 | 56 | 213 | 0.0 | 3.0 | 0.00 | 0.00 | 0.00 | 66 | 1020.6 |
| 20260508174529 | 56 | 226 | 1.0 | 3.0 | 0.00 | 0.00 | 0.00 | 66 | 1020.6 |
| 20260508173030 | 56 | 271 | 1.0 | 5.0 | 0.00 | 0.00 | 0.00 | 65 | 1020.3 |
| 20260508170030 | 55 | 65 | 2.0 | 4.0 | 0.00 | 0.00 | 0.00 | 64 | 1020.1 |
| 20260508164530 | 54 | 47 | 3.0 | 7.0 | 0.00 | 0.00 | 0.00 | 64 | 1019.9 |
| 20260508161605 | 56 | 19 | 8.0 | 16.0 | 0.00 | 0.00 | 0.00 | 62 | 1020.0 |
| 20260508160105 | 57 | 8 | 7.0 | 17.0 | 0.00 | 0.00 | 0.00 | 60 | 1020.0 |
| 20260508154603 | 57 | 344 | 7.0 | 14.0 | 0.00 | 0.00 | 0.00 | 60 | 1020.1 |
| 20260508153108 | 59 | 320 | 6.0 | 14.0 | 0.00 | 0.00 | 0.00 | 59 | 1020.0 |
| 20260508151644 | 58 | 336 | 4.0 | 17.0 | 0.00 | 0.00 | 0.00 | 61 | 1019.9 |
| 20260508150030 | 57 | 332 | 8.0 | 16.0 | 0.00 | 0.00 | 0.00 | 62 | 1019.7 |
| 20260508144530 | 55 | 1 | 4.0 | 11.0 | 0.00 | 0.00 | 0.00 | 62 | 1019.6 |
| 20260508143032 | 54 | 357 | 6.0 | 13.0 | 0.00 | 0.00 | 0.00 | 61 | 1019.3 |
| 20260508141527 | 54 | 351 | 5.0 | 13.0 | 0.00 | 0.00 | 0.00 | 61 | 1019.2 |
| 20260508140032 | 54 | 342 | 6.0 | 13.0 | 0.00 | 0.00 | 0.00 | 63 | 1019.1 |
| 20260508134530 | 53 | 316 | 5.0 | 11.0 | 0.00 | 0.00 | 0.00 | 65 | 1019.0 |
| 20260508133030 | 53 | 321 | 3.0 | 15.0 | 0.00 | 0.00 | 0.00 | 67 | 1018.9 |
| 20260508131531 | 52 | 343 | 5.0 | 11.0 | 0.00 | 0.00 | 0.00 | 71 | 1018.7 |
| 20260508130032 | 50 | 341 | 5.0 | 13.0 | 0.00 | 0.00 | 0.00 | 76 | 1018.6 |
| 20260508124532 | 45 | 349 | 6.0 | 13.0 | 0.00 | 0.00 | 0.00 | 82 | 1018.4 |
| 20260508123032 | 41 | 322 | 2.0 | 8.0 | 0.00 | 0.00 | 0.00 | 81 | 1018.3 |
| 20260508121530 | 41 | 136 | 0.0 | 3.0 | 0.00 | 0.00 | 0.00 | 79 | 1018.2 |
| 20260508120032 | 41 | 179 | 1.0 | 3.0 | 0.00 | 0.00 | 0.00 | 77 | 1018.1 |
| 20260508114531 | 42 | 157 | 0.0 | 4.0 | 0.00 | 0.00 | 0.00 | 75 | 1018.1 |
| 20260508113146 | 42 | 187 | 1.0 | 6.0 | 0.00 | 0.00 | 0.00 | 75 | 1018.0 |
| 20260508111605 | 42 | 143 | 1.0 | 5.0 | 0.00 | 0.00 | 0.00 | 75 | 1017.9 |
| 20260508104530 | 41 | 131 | 1.0 | 5.0 | 0.00 | 0.00 | 0.00 | 76 | 1017.8 |
| 20260508103107 | 40 | 125 | 0.0 | 4.0 | 0.00 | 0.00 | 0.00 | 78 | 1017.8 |
| 20260508101534 | 39 | 149 | 1.0 | 5.0 | 0.00 | 0.00 | 0.00 | 79 | 1017.8 |
| 20260508100032 | 39 | 109 | 0.0 | 5.0 | 0.00 | 0.00 | 0.00 | 78 | 1017.8 |
| 20260508094532 | 39 | 123 | 0.0 | 6.0 | 0.00 | 0.00 | 0.00 | 75 | 1017.8 |